STARLINK-11545, 63016

Orbit data source: Space-Track

STARLINK-11545, 63016 is a payload satellite owned by SpaceX/Seattle (US) in LEO that was launched on Sat, 15 Feb 2025 UTC via an FALCON 9 launch vehicle from the Air Force Eastern Test Range (AFETR). Payload-class satellites include a variety of spacecraft equipped with specific instruments for various scientific and technological missions. These include communications satellites like Starlink; space stations such as the ISS; scientific satellites like the Hubble; Earth observation satellites from companies like Planet Labs, Umbra, and HawkEye 360; GPS; miniature CubeSats for education and research; and military/defense satellites.

Loading next visibility...
Identifier
63016, 2025-032M
Orbit
LEO
Country
Flag of USUS
Related business
Manufacturer
SpaceX/Seattle
Mission
Operational Commercial Communications
Bus & Motor
STARLINK V2MD, Unknown motor
Mass
960 kg wet, ~910 kg dry
Launch date (UTC)
2025-02-15 (8 months ago)
Launch vehicle
FALCON 9
Launch site
Air Force Eastern Test Range (AFETR)
Object type
Payload
Rocket body
Debris
Shape & HBR
Box + 2 Pan, 18.1 m
Radar Cross Section
36.964 m², Large (>1 m²)

Expand to show TLE details & history
Last TLE update: 1 day ago

TLE from 1 day ago
0 STARLINK-11545
1 63016U 25032M   25301.04442674  .00327613  00000-0  24307-2 0  9990
2 63016  42.9992 274.7460 0005379 289.2600  70.7686 15.71090930 41367
Epoch: 2025-10-28T01:03Z
TLE epoch observation values (Epoch: 2025-10-28T01:03:58.470Z)
Latitude
0.00001°
Longitude
-137.88518°
Altitude
354.358 km
Speed
7.699 km/s
True Right ascension
18h 18m 59s
True Declination
0° 00' 00"
Sunlit
Object was in daylight at epoch
Visualization orbit readout
Latitude
Unknown
Longitude
Unknown
Altitude
Unknown
Speed
Unknown
Apparent Right ascension
Unknown
Apparent Declination
Unknown
Sunlit
N/A
Visualization observer readout
Local Sidereal Time
23:55:23
Azimuth
Unknown
Elevation
Unknown
Doppler factor
Unknown
Orbital elements
Apogee altitude
361.383 km
Perigee altitude
354.137 km
Semi-major axis
6,735.897 km
Eccentricity
0.00054
Inclination
42.9992°
RAAN
274.746°
Arg. of periapsis
289.26°
True anomaly
70.82681°
Mean anomaly
70.7686°
Eccentric anomaly
70.7977°
Mean motion
3.926 °/min
Orbital period
91.7 mins
BSTAR
0.0024307
Loading maneuver chart data...
Computing Atmospheric mass density...
Loading historical data...
Loading historical data...
Loading historical data...
Loading historical data...
Loading historical data...
Loading historical data...
Loading historical data...

Documentation

Showing up to 5 results
|